| time (UTC) | temp F | wind direction | speed MPH | gust MPH | rain 1hr in | rain 24hr in | rain mn in | humidity % | barometer mb |
| 20260510033307 | 62 | 55 | 0.0 | 0.0 | 0.00 | 0.00 | 0.00 | 71 | 1012.8 |
| 20260510032307 | 62 | 55 | 0.0 | 0.0 | 0.00 | 0.00 | 0.00 | 69 | 1012.5 |
| 20260510031307 | 63 | 196 | 0.0 | 0.0 | 0.00 | 0.00 | 0.00 | 67 | 1012.3 |
| 20260510030304 | 64 | 196 | 0.0 | 0.0 | 0.00 | 0.00 | 0.00 | 66 | 1012.3 |
| 20260510025306 | 64 | 196 | 0.0 | 0.0 | 0.00 | 0.00 | 0.00 | 63 | 1012.2 |
| 20260510024302 | 65 | 289 | 0.0 | 0.0 | 0.00 | 0.00 | 0.00 | 64 | 1012.1 |
| 20260510023302 | 66 | 217 | 0.0 | 0.0 | 0.00 | 0.00 | 0.00 | 63 | 1012.1 |
| 20260510022744 | 66 | 267 | 0.0 | 0.0 | 0.00 | 0.00 | 0.00 | 58 | 1011.8 |
| 20260510021305 | 67 | 245 | 0.0 | 0.0 | 0.00 | 0.00 | 0.00 | 58 | 1011.6 |
| 20260510020303 | 66 | 245 | 0.0 | 0.0 | 0.00 | 0.00 | 0.00 | 58 | 1011.3 |
| 20260510015306 | 66 | 197 | 0.0 | 0.0 | 0.00 | 0.00 | 0.00 | 61 | 1011.2 |
| 20260510014302 | 67 | 190 | 0.0 | 0.0 | 0.00 | 0.02 | 0.00 | 63 | 1011.0 |
| 20260510013303 | 70 | 34 | 0.0 | 0.0 | 0.00 | 0.05 | 0.00 | 54 | 1010.8 |
| 20260510012300 | 71 | 34 | 0.0 | 0.0 | 0.00 | 0.07 | 0.00 | 51 | 1010.7 |
| 20260510011258 | 72 | 34 | 0.0 | 0.0 | 0.00 | 0.08 | 0.00 | 45 | 1010.6 |
| 20260510010259 | 73 | 34 | 0.0 | 0.0 | 0.00 | 0.09 | 0.00 | 41 | 1010.6 |
| 20260510005258 | 74 | 34 | 0.0 | 0.0 | 0.00 | 0.09 | 0.00 | 40 | 1010.4 |
| 20260510004259 | 75 | 34 | 0.0 | 0.0 | 0.00 | 0.10 | 0.00 | 39 | 1010.1 |
| 20260510003259 | 76 | 34 | 0.0 | 1.0 | 0.00 | 0.10 | 0.00 | 39 | 1010.1 |
| 20260510002732 | 77 | 31 | 0.0 | 1.0 | 0.00 | 0.10 | 0.00 | 37 | 1010.1 |
| 20260510001259 | 77 | 50 | 0.0 | 0.0 | 0.00 | 0.10 | 0.00 | 35 | 1010.0 |
| 20260510000259 | 78 | 41 | 0.0 | 3.0 | 0.00 | 0.10 | 0.00 | 34 | 1010.0 |
| 20260509235257 | 78 | 39 | 0.0 | 2.0 | 0.00 | 0.10 | 0.00 | 35 | 1010.4 |
| 20260509234755 | 78 | 34 | 0.0 | 1.0 | 0.00 | 0.10 | 0.00 | 34 | 1010.4 |
| 20260509232254 | 78 | 79 | 0.0 | 2.0 | 0.00 | 0.10 | 0.00 | 34 | 1010.6 |
| 20260509231728 | 78 | 101 | 0.0 | 4.0 | 0.00 | 0.10 | 0.00 | 34 | 1010.7 |
| 20260509230253 | 78 | 49 | 0.0 | 2.0 | 0.00 | 0.10 | 0.00 | 34 | 1010.6 |
| 20260509225725 | 78 | 120 | 0.0 | 0.0 | 0.00 | 0.10 | 0.00 | 33 | 1010.6 |
| 20260509224251 | 79 | 186 | 1.0 | 3.0 | 0.00 | 0.10 | 0.00 | 33 | 1010.7 |
| 20260509223253 | 79 | 113 | 1.0 | 4.0 | 0.00 | 0.10 | 0.00 | 32 | 1010.9 |
| 20260509222251 | 79 | 108 | 1.0 | 4.0 | 0.00 | 0.10 | 0.00 | 33 | 1010.9 |
| 20260509221249 | 79 | 96 | 0.0 | 3.0 | 0.00 | 0.10 | 0.00 | 34 | 1010.8 |
| 20260509220251 | 79 | 69 | 2.0 | 8.0 | 0.00 | 0.10 | 0.00 | 33 | 1010.8 |
| 20260509215251 | 79 | 109 | 1.0 | 3.0 | 0.00 | 0.10 | 0.00 | 37 | 1010.7 |
| 20260509214249 | 80 | 180 | 2.0 | 6.0 | 0.00 | 0.10 | 0.00 | 32 | 1010.7 |
| 20260509213247 | 80 | 128 | 2.0 | 4.0 | 0.00 | 0.10 | 0.00 | 32 | 1010.7 |
| 20260509212246 | 80 | 161 | 2.0 | 4.0 | 0.00 | 0.10 | 0.00 | 34 | 1011.0 |
| 20260509211243 | 80 | 58 | 1.0 | 4.0 | 0.00 | 0.10 | 0.00 | 31 | 1011.2 |
| 20260509210725 | 80 | 11 | 1.0 | 4.0 | 0.00 | 0.10 | 0.00 | 30 | 1011.3 |
| 20260509205240 | 81 | 35 | 2.0 | 5.0 | 0.00 | 0.10 | 0.00 | 33 | 1011.3 |
| 20260509204239 | 80 | 155 | 2.0 | 5.0 | 0.00 | 0.10 | 0.00 | 31 | 1011.3 |
| 20260509203239 | 80 | 114 | 1.0 | 6.0 | 0.00 | 0.10 | 0.00 | 31 | 1011.3 |
| 20260509202731 | 80 | 112 | 1.0 | 5.0 | 0.00 | 0.10 | 0.00 | 33 | 1011.2 |
| 20260509201240 | 80 | 120 | 2.0 | 7.0 | 0.00 | 0.10 | 0.00 | 30 | 1011.4 |
| 20260509200712 | 80 | 113 | 1.0 | 6.0 | 0.00 | 0.10 | 0.00 | 36 | 1011.5 |
| 20260509195240 | 80 | 250 | 1.0 | 7.0 | 0.00 | 0.10 | 0.00 | 31 | 1011.6 |
| 20260509194240 | 80 | 22 | 1.0 | 2.0 | 0.00 | 0.10 | 0.00 | 35 | 1011.4 |
| 20260509193730 | 80 | 211 | 2.0 | 7.0 | 0.00 | 0.10 | 0.00 | 32 | 1011.6 |
| 20260509192239 | 80 | 340 | 1.0 | 6.0 | 0.00 | 0.10 | 0.00 | 36 | 1011.6 |
| 20260509191237 | 80 | 355 | 1.0 | 4.0 | 0.00 | 0.10 | 0.00 | 33 | 1011.7 |
| 20260509190716 | 80 | 324 | 2.0 | 4.0 | 0.00 | 0.10 | 0.00 | 41 | 1011.6 |
| 20260509185237 | 80 | 291 | 2.0 | 8.0 | 0.00 | 0.10 | 0.00 | 35 | 1011.8 |
| 20260509184237 | 79 | 196 | 3.0 | 6.0 | 0.00 | 0.10 | 0.00 | 35 | 1011.9 |
| 20260509183237 | 79 | 134 | 3.0 | 7.0 | 0.00 | 0.10 | 0.00 | 34 | 1011.9 |
| 20260509182238 | 78 | 176 | 4.0 | 9.0 | 0.00 | 0.10 | 0.00 | 35 | 1011.8 |
| 20260509181725 | 78 | 171 | 3.0 | 6.0 | 0.00 | 0.10 | 0.00 | 41 | 1011.9 |
| 20260509180232 | 78 | 155 | 3.0 | 5.0 | 0.00 | 0.10 | 0.00 | 42 | 1012.0 |
| 20260509175231 | 78 | 17 | 2.0 | 5.0 | 0.00 | 0.10 | 0.00 | 43 | 1012.1 |
| 20260509174232 | 78 | 156 | 0.0 | 2.0 | 0.00 | 0.10 | 0.00 | 45 | 1012.1 |
| 20260509173233 | 77 | 192 | 3.0 | 8.0 | 0.00 | 0.10 | 0.00 | 46 | 1012.2 |
| 20260509172232 | 77 | 173 | 3.0 | 8.0 | 0.00 | 0.10 | 0.00 | 52 | 1012.3 |
| 20260509171231 | 76 | 171 | 3.0 | 8.0 | 0.00 | 0.10 | 0.00 | 55 | 1012.3 |
| 20260509170232 | 75 | 144 | 1.0 | 5.0 | 0.00 | 0.10 | 0.00 | 59 | 1012.3 |
| 20260509165234 | 74 | 194 | 1.0 | 6.0 | 0.00 | 0.10 | 0.00 | 56 | 1012.3 |
| 20260509164234 | 74 | 155 | 0.0 | 3.0 | 0.00 | 0.10 | 0.00 | 61 | 1012.3 |
| 20260509163231 | 73 | 122 | 1.0 | 4.0 | 0.00 | 0.10 | 0.00 | 61 | 1012.4 |
| 20260509162231 | 72 | 180 | 4.0 | 7.0 | 0.00 | 0.10 | 0.00 | 69 | 1012.5 |
| 20260509161230 | 72 | 179 | 3.0 | 6.0 | 0.00 | 0.10 | 0.00 | 69 | 1012.6 |
| 20260509160231 | 71 | 176 | 3.0 | 7.0 | 0.00 | 0.10 | 0.00 | 75 | 1012.6 |
| 20260509155718 | 70 | 164 | 3.0 | 6.0 | 0.00 | 0.10 | 0.00 | 73 | 1012.5 |
| 20260509154231 | 69 | 172 | 3.0 | 6.0 | 0.00 | 0.10 | 0.00 | 76 | 1012.5 |
| 20260509153231 | 69 | 182 | 3.0 | 6.0 | 0.00 | 0.10 | 0.00 | 79 | 1012.4 |
| 20260509152232 | 68 | 158 | 2.0 | 5.0 | 0.00 | 0.10 | 0.00 | 79 | 1012.4 |
| 20260509151230 | 67 | 181 | 2.0 | 6.0 | 0.00 | 0.10 | 0.00 | 80 | 1012.5 |
| 20260509150247 | 67 | 180 | 3.0 | 7.0 | 0.00 | 0.10 | 0.00 | 83 | 1012.5 |
| 20260509145231 | 66 | 190 | 2.0 | 5.0 | 0.00 | 0.10 | 0.00 | 83 | 1012.4 |
| 20260509144231 | 65 | 185 | 3.0 | 6.0 | 0.00 | 0.10 | 0.00 | 87 | 1012.3 |
| 20260509143233 | 64 | 169 | 2.0 | 5.0 | 0.00 | 0.10 | 0.00 | 89 | 1012.4 |
| 20260509142232 | 63 | 201 | 1.0 | 2.0 | 0.00 | 0.10 | 0.00 | 91 | 1012.2 |
| 20260509141233 | 62 | 155 | 0.0 | 3.0 | 0.00 | 0.10 | 0.00 | 93 | 1012.2 |
| 20260509140231 | 60 | 138 | 1.0 | 4.0 | 0.00 | 0.10 | 0.00 | 94 | 1012.2 |
| 20260509135720 | 59 | 189 | 1.0 | 3.0 | 0.00 | 0.10 | 0.00 | 94 | 1012.1 |
| 20260509134231 | 58 | 192 | 0.0 | 1.0 | 0.00 | 0.10 | 0.00 | 95 | 1012.0 |
| 20260509133233 | 57 | 144 | 0.0 | 0.0 | 0.00 | 0.10 | 0.00 | 95 | 1012.0 |
| 20260509132236 | 57 | 144 | 0.0 | 0.0 | 0.00 | 0.10 | 0.00 | 95 | 1011.9 |
| 20260509131230 | 56 | 155 | 0.0 | 0.0 | 0.00 | 0.10 | 0.00 | 95 | 1011.7 |
| 20260509130727 | 55 | 155 | 0.0 | 0.0 | 0.00 | 0.10 | 0.00 | 95 | 1011.7 |
| 20260509125722 | 55 | 178 | 0.0 | 0.0 | 0.00 | 0.10 | 0.00 | 95 | 1011.6 |
| 20260509124230 | 54 | 135 | 0.0 | 0.0 | 0.00 | 0.10 | 0.00 | 95 | 1011.7 |
| 20260509123709 | 54 | 135 | 0.0 | 0.0 | 0.00 | 0.10 | 0.00 | 95 | 1011.7 |
| 20260509122232 | 53 | 84 | 0.0 | 0.0 | 0.00 | 0.10 | 0.00 | 95 | 1011.6 |
| 20260509121231 | 53 | 84 | 0.0 | 0.0 | 0.00 | 0.10 | 0.00 | 95 | 1011.4 |
| 20260509120228 | 53 | 84 | 0.0 | 0.0 | 0.00 | 0.10 | 0.00 | 95 | 1011.3 |
| 20260509115227 | 53 | 84 | 0.0 | 0.0 | 0.00 | 0.10 | 0.00 | 95 | 1011.2 |
| 20260509114222 | 52 | 84 | 0.0 | 0.0 | 0.00 | 0.10 | 0.00 | 95 | 1011.3 |
| 20260509113220 | 52 | 84 | 0.0 | 0.0 | 0.00 | 0.10 | 0.00 | 95 | 1011.1 |
| 20260509112655 | 52 | 84 | 0.0 | 0.0 | 0.00 | 0.10 | 0.00 | 95 | 1011.1 |
| 20260509111217 | 52 | 84 | 0.0 | 0.0 | 0.00 | 0.10 | 0.00 | 95 | 1010.9 |
| 20260509110218 | 52 | 129 | 0.0 | 0.0 | 0.00 | 0.10 | 0.00 | 95 | 1010.8 |
| 20260509105217 | 52 | 129 | 0.0 | 0.0 | 0.00 | 0.10 | 0.00 | 95 | 1010.7 |
| 20260509104216 | 52 | 129 | 0.0 | 0.0 | 0.00 | 0.10 | 0.00 | 95 | 1010.7 |
| 20260509103216 | 52 | 129 | 0.0 | 0.0 | 0.00 | 0.10 | 0.00 | 95 | 1010.5 |
| 20260509102217 | 52 | 140 | 0.0 | 0.0 | 0.00 | 0.10 | 0.00 | 95 | 1010.6 |
| 20260509101210 | 52 | 277 | 0.0 | 0.0 | 0.00 | 0.10 | 0.00 | 94 | 1010.6 |
| 20260509100212 | 53 | 209 | 0.0 | 2.0 | 0.00 | 0.10 | 0.00 | 94 | 1010.6 |
| 20260509095211 | 53 | 5 | 0.0 | 1.0 | 0.00 | 0.10 | 0.00 | 95 | 1010.6 |
| 20260509094210 | 53 | 5 | 0.0 | 2.0 | 0.00 | 0.10 | 0.00 | 95 | 1010.7 |
| 20260509093210 | 53 | 5 | 0.0 | 2.0 | 0.00 | 0.10 | 0.00 | 95 | 1010.7 |
| 20260509092210 | 53 | 296 | 0.0 | 0.0 | 0.00 | 0.10 | 0.00 | 94 | 1010.8 |
| 20260509091211 | 53 | 296 | 0.0 | 0.0 | 0.00 | 0.10 | 0.00 | 94 | 1010.8 |
| 20260509090210 | 53 | 296 | 0.0 | 0.0 | 0.00 | 0.10 | 0.00 | 95 | 1010.9 |
| 20260509085645 | 52 | 296 | 0.0 | 0.0 | 0.00 | 0.10 | 0.00 | 94 | 1010.9 |
| 20260509084206 | 53 | 296 | 0.0 | 0.0 | 0.00 | 0.10 | 0.00 | 94 | 1010.9 |
| 20260509083206 | 53 | 296 | 0.0 | 0.0 | 0.00 | 0.10 | 0.00 | 94 | 1011.1 |
| 20260509082204 | 52 | 296 | 0.0 | 0.0 | 0.00 | 0.10 | 0.00 | 94 | 1011.1 |
| 20260509081204 | 53 | 252 | 0.0 | 0.0 | 0.00 | 0.10 | 0.00 | 94 | 1011.2 |
| 20260509080206 | 53 | 252 | 0.0 | 0.0 | 0.00 | 0.10 | 0.00 | 93 | 1011.2 |
| 20260509075205 | 53 | 252 | 0.0 | 0.0 | 0.00 | 0.10 | 0.00 | 93 | 1011.3 |
| 20260509074648 | 54 | 252 | 0.0 | 1.0 | 0.00 | 0.10 | 0.00 | 93 | 1011.3 |
| 20260509073204 | 54 | 293 | 0.0 | 1.0 | 0.00 | 0.10 | 0.00 | 94 | 1011.3 |
| 20260509072204 | 54 | 293 | 0.0 | 2.0 | 0.00 | 0.10 | 0.00 | 93 | 1011.4 |
| 20260509071205 | 54 | 263 | 0.0 | 1.0 | 0.00 | 0.10 | 0.00 | 93 | 1011.3 |
| 20260509070204 | 54 | 263 | 0.0 | 0.0 | 0.00 | 0.10 | 0.00 | 93 | 1011.1 |
| 20260509064201 | 55 | 263 | 0.0 | 0.0 | 0.00 | 0.10 | 0.00 | 92 | 1011.3 |
| 20260509063650 | 55 | 320 | 0.0 | 1.0 | 0.00 | 0.10 | 0.00 | 93 | 1011.3 |
| 20260509062202 | 55 | 320 | 0.0 | 2.0 | 0.00 | 0.10 | 0.00 | 91 | 1011.4 |
| 20260509061202 | 55 | 289 | 0.0 | 0.0 | 0.00 | 0.10 | 0.00 | 92 | 1011.3 |
| 20260509060203 | 55 | 289 | 0.0 | 0.0 | 0.00 | 0.10 | 0.00 | 92 | 1011.3 |
| 20260509055201 | 56 | 289 | 0.0 | 1.0 | 0.00 | 0.10 | 0.00 | 91 | 1011.5 |
| 20260509054201 | 56 | 309 | 0.0 | 2.0 | 0.00 | 0.10 | 0.00 | 90 | 1011.6 |
| 20260509053200 | 57 | 309 | 1.0 | 3.0 | 0.00 | 0.10 | 0.00 | 90 | 1011.6 |
| 20260509052200 | 57 | 335 | 3.0 | 5.0 | 0.00 | 0.10 | 0.00 | 90 | 1011.5 |
| 20260509051632 | 57 | 311 | 3.0 | 7.0 | 0.00 | 0.10 | 0.00 | 90 | 1011.5 |
| 20260509050644 | 57 | 327 | 4.0 | 7.0 | 0.00 | 0.10 | 0.00 | 90 | 1011.7 |
| 20260509045154 | 57 | 331 | 6.0 | 8.0 | 0.00 | 0.10 | 0.10 | 89 | 1011.5 |
| 20260509044153 | 58 | 321 | 3.0 | 6.0 | 0.00 | 0.10 | 0.10 | 87 | 1011.3 |
| 20260509043152 | 59 | 204 | 3.0 | 6.0 | 0.00 | 0.10 | 0.10 | 86 | 1010.9 |
| 20260509042153 | 58 | 217 | 2.0 | 5.0 | 0.00 | 0.10 | 0.10 | 88 | 1010.9 |
| 20260509041639 | 58 | 203 | 2.0 | 5.0 | 0.00 | 0.10 | 0.10 | 86 | 1010.8 |
| 20260509040639 | 59 | 261 | 2.0 | 4.0 | 0.00 | 0.10 | 0.10 | 85 | 1010.6 |
| 20260509035636 | 59 | 198 | 2.0 | 4.0 | 0.00 | 0.10 | 0.10 | 85 | 1010.6 |
| 20260509034150 | 60 | 223 | 3.0 | 5.0 | 0.00 | 0.10 | 0.10 | 83 | 1010.3 |